Hauptseite
METAR-TAF:

METAR-TAF

Flughäfen :

Ferrara, Italien

Breite: 44-50N, Länge: 011-37E, Höhe: 10 m

Beobachtung

Neuester Wetterbericht von vor 9 Stunden und 59 Minuten, um 17:55 UTC
Wind 2 kt aus West/Nordwest
Temperatur 27°C
Luftfeuchtigkeit 42%
Luftdruck 1015 hPa
Sichtweite 10 km oder mehr
keine Wolken unter 1500 m und keine Kumulonimbus oder Gewitterwolken

METAR: LIPF 151755Z 29002KT CAVOK 27/13 Q1015 RMK SKC VIS MIN 9999

Zeit: 05:54 (03:54 UTC)


TAF: fehlend

Wetterbeobachtungen und Prognosen von mehr als 4000 Flughäfen (METAR und TAF Bericht).

Die verfügbaren Stationen werden durch gelbe und rote Markierungen auf der Karte dargestellt.

Führen Sie die Maus auf sie, um den Namen der Station zu sehen.

Darauf klicken, um die Beobachtung von Wetterbeobachtungen und Prognosen zu sehen.

Um die Karte zu ändern : klicken Sie auf den grünen Tasten mit einem schwarzen Kreuz Zum Vergrößern, auf den grünen Button mit einem Gedankenstrich zu verkleinern, oder auf die grünen Pfeile für benachbarte Karten.


METAR-TAF: